User: anonymous   Login
Location: Morlupo
(42.1333°N, 12.5000°E)
Time: 16:59:56
(UTC+00:00)
Language:

Okean-O - Orbit

View from above orbital plane
View from above orbital plane
View from above satellite
View from above satellite

Ground track
Ground track

The orbit data is extracted from the following two-line orbital elements,

1 25860U 99039A   21162.83946840  .00000066  00000-0  16971-4 0  9995
2 25860  98.1825 193.5125 0001653 109.1823 250.9565 14.76738557178552
Epoch (UTC): 11 June 2021 20:08:50
Eccentricity: 0.0001653
inclination: 98.1825°
perigee height: 638 km
apogee height: 641 km
right ascension of ascending node: 193.5125°
argument of perigee: 109.1823°
revolutions per day: 14.76738557
mean anomaly at epoch: 250.9565°
orbit number at epoch: 17855

The dashed part of the orbit path shows where the satellite is in the earth's shadow,  

DLR